• In Austria
  • List of Countries
  • For 7 days
  • Water Temperature
  • Satellite Maps
  • Weather Map
  • News
  • Weather Widgets
  • user-avatar
    Login

    Hourly Weather Chysten'ke

    Today, 19 October, Friday

    Time Temperature Precipitation Wind Pressure Humidity
    00:00 +14°C° 0 mm 1 mps 736 mmHg 81%
    01:00 +14°C° 0 mm 1 mps 735 mmHg 80%
    02:00 +14°C° 0 mm 1 mps 735 mmHg 80%
    03:00 +14°C° 0 mm 1 mps 735 mmHg 79%
    04:00 +14°C° 0 mm 1 mps 735 mmHg 78%
    05:00 +14°C° 0 mm 1 mps 735 mmHg 77%
    06:00 +15°C° 0 mm 1 mps 735 mmHg 72%
    07:00 +16°C° 0 mm 1 mps 735 mmHg 67%
    08:00 +18°C° 0 mm 1 mps 735 mmHg 62%
    09:00 +20°C° 0 mm 1 mps 736 mmHg 57%
    10:00 +21°C° 0 mm 1 mps 736 mmHg 52%
    11:00 +23°C° 0 mm 1 mps 736 mmHg 46%
    12:00 +23°C° 0.1 mm 2 mps 736 mmHg 47%
    13:00 +23°C° 0.1 mm 2 mps 736 mmHg 47%
    14:00 +24°C° 0.1 mm 2 mps 736 mmHg 47%
    15:00 +21°C° 0.1 mm 2 mps 735 mmHg 55%
    16:00 +19°C° 0.1 mm 2 mps 735 mmHg 63%
    17:00 +18°C° 0.1 mm 2 mps 735 mmHg 70%
    18:00 +18°C° 0.1 mm 1 mps 735 mmHg 74%
    19:00 +18°C° 0.1 mm 1 mps 735 mmHg 78%
    20:00 +16°C° 0.1 mm 1 mps 735 mmHg 81%
    21:00 +16°C° 0 mm 1 mps 735 mmHg 83%
    22:00 +15°C° 0 mm 1 mps 735 mmHg 84%
    23:00 +15°C° 0 mm 1 mps 735 mmHg 85%

    Tomorrow, 20 October, Saturday

    Time Temperature Precipitation Wind Pressure Humidity
    00:00 +15°C° 0 mm 1 mps 735 mmHg 86%
    01:00 +15°C° 0 mm 1 mps 735 mmHg 87%
    02:00 +14°C° 0 mm 1 mps 735 mmHg 88%
    03:00 +14°C° 0 mm 1 mps 735 mmHg 89%
    04:00 +14°C° 0 mm 1 mps 735 mmHg 89%
    05:00 +14°C° 0 mm 1 mps 735 mmHg 90%
    06:00 +15°C° 0 mm 1 mps 735 mmHg 84%
    07:00 +16°C° 0 mm 1 mps 735 mmHg 79%
    08:00 +18°C° 0 mm 1 mps 735 mmHg 73%
    09:00 +19°C° 0 mm 1 mps 735 mmHg 66%
    10:00 +20°C° 0 mm 1 mps 736 mmHg 59%
    11:00 +21°C° 0 mm 2 mps 736 mmHg 52%
    12:00 +21°C° 0.1 mm 2 mps 736 mmHg 51%
    13:00 +21°C° 0.1 mm 2 mps 735 mmHg 50%
    14:00 +23°C° 0.1 mm 2 mps 735 mmHg 49%
    15:00 +20°C° 0.1 mm 2 mps 735 mmHg 55%
    16:00 +19°C° 0.1 mm 2 mps 735 mmHg 60%
    17:00 +18°C° 0.1 mm 2 mps 735 mmHg 65%
    18:00 +17°C° 0.1 mm 2 mps 735 mmHg 67%
    19:00 +16°C° 0.1 mm 2 mps 735 mmHg 69%
    20:00 +16°C° 0.1 mm 1 mps 735 mmHg 71%
    21:00 +15°C° 0 mm 1 mps 735 mmHg 71%
    22:00 +15°C° 0 mm 1 mps 735 mmHg 72%
    23:00 +15°C° 0 mm 1 mps 734 mmHg 73%

    Day after tomorrow, 21 October, Sunday

    Time Temperature Precipitation Wind Pressure Humidity
    00:00 +14°C° 0 mm 1 mps 734 mmHg 73%
    01:00 +14°C° 0 mm 1 mps 734 mmHg 74%
    02:00 +14°C° 0 mm 1 mps 734 mmHg 74%
    03:00 +14°C° 0 mm 1 mps 734 mmHg 75%
    04:00 +13°C° 0 mm 1 mps 734 mmHg 75%
    05:00 +13°C° 0 mm 1 mps 734 mmHg 76%
    06:00 +14°C° 0 mm 1 mps 734 mmHg 72%
    07:00 +15°C° 0 mm 2 mps 734 mmHg 69%
    08:00 +15°C° 0 mm 2 mps 734 mmHg 66%
    09:00 +17°C° 0 mm 2 mps 734 mmHg 61%
    10:00 +18°C° 0 mm 2 mps 734 mmHg 56%
    11:00 +19°C° 0 mm 2 mps 734 mmHg 51%
    12:00 +20°C° 0 mm 2 mps 734 mmHg 50%
    13:00 +20°C° 0 mm 2 mps 734 mmHg 50%
    14:00 +20°C° 0 mm 2 mps 734 mmHg 49%
    15:00 +19°C° 0.1 mm 2 mps 734 mmHg 53%
    16:00 +18°C° 0.1 mm 2 mps 734 mmHg 58%
    17:00 +16°C° 0.1 mm 2 mps 734 mmHg 62%
    18:00 +16°C° 0 mm 2 mps 734 mmHg 65%
    19:00 +15°C° 0 mm 2 mps 734 mmHg 68%
    20:00 +15°C° 0 mm 2 mps 734 mmHg 70%
    21:00 +15°C° 0.1 mm 2 mps 734 mmHg 71%
    22:00 +15°C° 0.1 mm 2 mps 734 mmHg 72%
    23:00 +14°C° 0.1 mm 2 mps 734 mmHg 72%

    22 October, Monday

    Time Temperature Precipitation Wind Pressure Humidity
    00:00 +14°C° 0.4 mm 2 mps 734 mmHg 73%
    01:00 +14°C° 0.4 mm 2 mps 734 mmHg 74%
    02:00 +14°C° 0.4 mm 2 mps 734 mmHg 74%
    03:00 +14°C° 0.6 mm 2 mps 734 mmHg 76%
    04:00 +13°C° 0.6 mm 2 mps 734 mmHg 78%
    05:00 +13°C° 0.6 mm 2 mps 734 mmHg 80%
    06:00 +13°C° 0.3 mm 2 mps 734 mmHg 80%
    07:00 +13°C° 0.3 mm 2 mps 734 mmHg 80%
    08:00 +13°C° 0.3 mm 1 mps 734 mmHg 79%
    09:00 +14°C° 0 mm 1 mps 734 mmHg 76%
    10:00 +15°C° 0 mm 2 mps 735 mmHg 72%
    11:00 +16°C° 0 mm 2 mps 735 mmHg 69%
    12:00 +16°C° 0 mm 2 mps 734 mmHg 67%
    13:00 +17°C° 0 mm 2 mps 734 mmHg 65%
    14:00 +17°C° 0 mm 2 mps 734 mmHg 63%
    15:00 +16°C° 0 mm 2 mps 734 mmHg 66%
    16:00 +16°C° 0 mm 2 mps 734 mmHg 70%
    17:00 +15°C° 0 mm 2 mps 734 mmHg 73%
    18:00 +14°C° 0 mm 1 mps 734 mmHg 76%
    19:00 +14°C° 0 mm 1 mps 734 mmHg 78%
    20:00 +13°C° 0 mm 1 mps 734 mmHg 80%
    21:00 +13°C° 0 mm 1 mps 734 mmHg 82%
    22:00 +13°C° 0 mm 1 mps 734 mmHg 83%
    23:00 +13°C° 0 mm 1 mps 734 mmHg 84%

    23 October, Tuesday

    Time Temperature Precipitation Wind Pressure Humidity
    00:00 +12°C° 0 mm 1 mps 734 mmHg 85%
    01:00 +12°C° 0 mm 1 mps 734 mmHg 86%
    02:00 +12°C° 0 mm 1 mps 734 mmHg 87%
    03:00 +12°C° 0 mm 1 mps 734 mmHg 87%
    04:00 +12°C° 0 mm 1 mps 734 mmHg 88%
    05:00 +11°C° 0 mm 1 mps 734 mmHg 88%
    06:00 +12°C° 0 mm 1 mps 734 mmHg 85%
    07:00 +13°C° 0 mm 1 mps 734 mmHg 81%
    08:00 +14°C° 0 mm 1 mps 734 mmHg 77%
    09:00 +14°C° 0 mm 0 mps 734 mmHg 72%
    10:00 +15°C° 0 mm 0 mps 734 mmHg 66%
    11:00 +16°C° 0 mm 0 mps 734 mmHg 61%
    12:00 +19°C° 0 mm 1 mps 734 mmHg 60%
    13:00 +19°C° 0 mm 1 mps 734 mmHg 58%
    14:00 +19°C° 0 mm 1 mps 734 mmHg 57%
    15:00 +18°C° 0 mm 1 mps 734 mmHg 61%
    16:00 +16°C° 0 mm 1 mps 734 mmHg 66%
    17:00 +15°C° 0 mm 1 mps 734 mmHg 70%
    18:00 +15°C° 0 mm 1 mps 734 mmHg 74%
    19:00 +14°C° 0 mm 1 mps 734 mmHg 78%
    20:00 +13°C° 0 mm 1 mps 734 mmHg 82%
    21:00 +13°C° 0 mm 1 mps 734 mmHg 83%
    22:00 +13°C° 0 mm 1 mps 734 mmHg 85%
    23:00 +12°C° 0 mm 1 mps 733 mmHg 86%

    24 October, Wednesday

    Time Temperature Precipitation Wind Pressure Humidity
    00:00 +12°C° 0 mm 1 mps 733 mmHg 87%
    01:00 +12°C° 0 mm 2 mps 733 mmHg 88%
    02:00 +12°C° 0 mm 2 mps 733 mmHg 89%
    03:00 +12°C° 0 mm 2 mps 732 mmHg 89%
    04:00 +12°C° 0 mm 2 mps 732 mmHg 89%
    05:00 +11°C° 0 mm 3 mps 732 mmHg 90%
    06:00 +11°C° 0 mm 3 mps 732 mmHg 86%
    07:00 +12°C° 0 mm 3 mps 731 mmHg 83%
    08:00 +12°C° 0 mm 4 mps 731 mmHg 80%
    09:00 +13°C° 0.1 mm 4 mps 731 mmHg 76%
    10:00 +14°C° 0.1 mm 4 mps 730 mmHg 72%
    11:00 +15°C° 0.1 mm 4 mps 730 mmHg 67%
    12:00 +14°C° 0.4 mm 3 mps 729 mmHg 70%
    13:00 +14°C° 0.4 mm 3 mps 729 mmHg 72%
    14:00 +14°C° 0.4 mm 3 mps 728 mmHg 74%
    15:00 +13°C° 0.4 mm 3 mps 727 mmHg 78%
    16:00 +13°C° 0.4 mm 3 mps 727 mmHg 81%
    17:00 +12°C° 0.4 mm 3 mps 726 mmHg 84%
    18:00 +13°C° 0.3 mm 2 mps 726 mmHg 85%
    19:00 +13°C° 0.3 mm 1 mps 726 mmHg 86%
    20:00 +13°C° 0.3 mm 1 mps 726 mmHg 87%
    21:00 +13°C° 1 mm 2 mps 725 mmHg 88%
    22:00 +12°C° 1 mm 3 mps 725 mmHg 89%
    23:00 +11°C° 1 mm 4 mps 725 mmHg 90%
    Show more